OPS 4682 DEB, 27545

Orbit data source: Space-Track

OPS 4682 DEB, 27545 is space debris in LEO originally from a launch on Sat, 03 Apr 1965 UTC launched from the Air Force Western Test Range (AFWTR). Debris objects in space refer to the collection of defunct objects orbiting the Earth. Examples of debris include non-operational satellites, rocket bodies, and fragments generated from explosions, collisions, or faulty payload assembly.

Loading next visibility...
Identifier
27545, 1965-027BH
Orbit
LEO
Country
Flag of USUS
Related business
Manufacturer
Unknown
Mission
Spacecraft
Bus & Motor
Unknown
Mass
Unknown
Launch date (UTC)
1965-04-03 (61 years ago)
Launch vehicle
Unknown
Launch site
Air Force Western Test Range (AFWTR)
Object type
Payload
Rocket body
Debris
Shape & HBR
Unknown shape, 0.1 m
Radar Cross Section
Small (<0.1 m²)

Expand to show TLE details & history
Last TLE update: 2 days ago

TLE from 2 days ago
0 OPS 4682 DEB
1 27545U 65027BH  26034.39976226  .00000619  00000-0  21800-2 0  9991
2 27545  90.2460   4.3090 0019863 230.6442 284.0162 12.95085908137933
Epoch: 2026-02-03T09:35Z
TLE epoch observation values (Epoch: 2026-02-03T09:35:39.459Z)
Latitude
25.58802°
Longitude
-93.06945°
Altitude
1,280.839 km
Speed
7.219 km/s
True Right ascension
12h 17m 42s
True Declination
25° 27' 48"
Sunlit
Object was in full shadow at epoch
Visualization orbit readout
Latitude
Unknown
Longitude
Unknown
Altitude
Unknown
Speed
Unknown
Apparent Right ascension
Unknown
Apparent Declination
Unknown
Sunlit
N/A
Visualization observer readout
Local Sidereal Time
08:46:51
Azimuth
Unknown
Elevation
Unknown
Doppler factor
Unknown
Orbital elements
Apogee altitude
1,293.744 km
Perigee altitude
1,263.327 km
Semi-major axis
7,656.672 km
Eccentricity
0.00199
Inclination
90.246°
RAAN
4.309°
Arg. of periapsis
230.6442°
True anomaly
283.79523°
Mean anomaly
284.0162°
Eccentric anomaly
283.90573°
Mean motion
3.23954 °/min
Orbital period
111.13 mins
BSTAR
0.00218
Loading maneuver chart data...
Computing Atmospheric mass density...
Loading historical data...
Loading historical data...
Loading historical data...
Loading historical data...
Loading historical data...
Loading historical data...
Loading historical data...

Documentation

Showing up to 5 results
|